TimeEDT,TemperatureF,Dew PointF,Humidity,Sea Level PressureIn,VisibilityMPH,Wind Direction,Wind SpeedMPH,Gust SpeedMPH,PrecipitationIn,Events,Conditions,WindDirDegrees,DateUTC
12:52 AM,46.0,45.0,96,30.17,10.0,Calm,Calm,-,N/A,,Partly Cloudy,0,2013-10-08 04:52:00
1:52 AM,46.9,44.1,90,30.18,10.0,Calm,Calm,-,N/A,,Partly Cloudy,0,2013-10-08 05:52:00
2:52 AM,48.0,46.0,93,30.19,10.0,Calm,Calm,-,N/A,,Clear,0,2013-10-08 06:52:00
3:52 AM,45.0,44.1,97,30.18,9.0,Calm,Calm,-,N/A,,Clear,0,2013-10-08 07:52:00
4:52 AM,46.9,46.0,97,30.19,10.0,North,5.8,-,N/A,,Clear,360,2013-10-08 08:52:00
5:52 AM,46.0,45.0,96,30.19,7.0,North,8.1,-,N/A,Fog,Patches of Fog,360,2013-10-08 09:52:00
6:01 AM,44.6,44.6,100,30.20,1.8,North,5.8,-,N/A,Fog,Patches of Fog,360,2013-10-08 10:01:00
6:09 AM,44.6,44.6,100,30.20,6.0,North,4.6,-,N/A,Fog,Patches of Fog,10,2013-10-08 10:09:00
6:52 AM,45.0,45.0,100,30.22,4.0,North,5.8,-,N/A,Fog,Patches of Fog,360,2013-10-08 10:52:00
7:52 AM,45.0,45.0,100,30.24,5.0,North,4.6,-,N/A,,Clear,10,2013-10-08 11:52:00
8:52 AM,48.0,48.0,100,30.26,7.0,East,3.5,-,N/A,,Clear,90,2013-10-08 12:52:00
9:52 AM,54.0,48.9,83,30.28,10.0,ENE,8.1,-,N/A,,Clear,60,2013-10-08 13:52:00
10:52 AM,57.9,48.0,70,30.28,10.0,ENE,9.2,-,N/A,,Clear,70,2013-10-08 14:52:00
11:52 AM,60.1,46.0,60,30.27,10.0,East,10.4,-,N/A,,Partly Cloudy,90,2013-10-08 15:52:00
12:52 PM,63.0,46.0,54,30.26,10.0,East,10.4,-,N/A,,Partly Cloudy,90,2013-10-08 16:52:00
1:52 PM,64.9,46.0,50,30.24,10.0,ESE,10.4,-,N/A,,Partly Cloudy,110,2013-10-08 17:52:00
2:52 PM,66.0,44.1,45,30.22,10.0,East,8.1,-,N/A,,Clear,90,2013-10-08 18:52:00
3:52 PM,68.0,44.1,42,30.21,10.0,East,10.4,18.4,N/A,,Clear,80,2013-10-08 19:52:00
4:52 PM,66.9,43.0,42,30.20,10.0,ENE,8.1,-,N/A,,Clear,60,2013-10-08 20:52:00
5:52 PM,66.0,43.0,43,30.19,10.0,ENE,10.4,-,N/A,,Clear,70,2013-10-08 21:52:00
6:52 PM,63.0,45.0,52,30.20,10.0,East,8.1,-,N/A,,Clear,90,2013-10-08 22:52:00
7:52 PM,61.0,43.0,52,30.20,10.0,ENE,8.1,-,N/A,,Clear,70,2013-10-08 23:52:00
8:52 PM,59.0,45.0,60,30.21,10.0,ENE,4.6,-,N/A,,Clear,70,2013-10-09 00:52:00
9:52 PM,57.0,45.0,64,30.21,10.0,East,4.6,-,N/A,,Clear,100,2013-10-09 01:52:00
10:52 PM,54.0,45.0,72,30.22,10.0,East,4.6,-,N/A,,Clear,80,2013-10-09 02:52:00
11:52 PM,54.0,45.0,72,30.22,10.0,East,3.5,-,N/A,,Clear,80,2013-10-09 03:52:00